Location: Buffign�court
(47.8126°N, 6.0176°E)
Time: 02:10:17
(UTC+00:00)

Cosmos 2237 Rocket - Pass Details

Date: 16 June 2021
Orbit: 835 x 849 km, 71.0° (Epoch: 25 July)

Event Time Altitude Azimuth Distance (km) Brightness Sun altitude
Exits shadow 23:24:01 29° 208° (SSW) 1,496 3.0 -18.7°
Maximum altitude 23:27:02 88° 296° (WNW) 843 2.1 -18.8°
Drops below altitude 10° 23:32:41 10° 27° (NNE) 2,457 5.5 -18.8°
Sets 23:35:08 0° 28° (NNE) 3,396 6.4 -18.8°
